Regional Weather Roundup
Issued by NWS State College, PA

Home | Current Version | Previous Version | Graphics & Text | Print | Product List | Glossary On
Versions: 1 2 3 4 5 6 7 8 9 10 11 12 13 14 15 16 17 18 19 20 21 22 23 24 25 26 27 28 29 30 31 32 33 34 35 36 37 38 39 40 41 42 43 44 45 46 47 48 49 50
000
ASUS41 KCTP 211803
RWRCTP

REGIONAL WEATHER ROUNDUP
NATIONAL WEATHER SERVICE STATE COLLEGE PA
100 PM EST SUN DEC 21 2014

Note: "fair" indicates few or no clouds below 12,000 feet with no
significant weather and/or obstructions to visibility.

* = STATION THAT DOES NOT REPORT PRECIPITATION /E.G. RAIN...SNOW...ETC/
    THUNDER OR FOG.

PAZ002>004-007>009-013>016-020>023-029>032-211900-
WESTERN PENNSYLVANIA

CITY           SKY/WX    TMP DP  RH WIND       PRES   REMARKS
ERIE           CLOUDY    33  23  66 S6        30.29F
MEADVILLE      CLOUDY    30  20  66 CALM      30.25F
FRANKLIN*      CLOUDY    28  19  69 S6        30.27F
NEW CASTLE       N/A     30  21  69 CALM      30.29F
BEAVER COUNTY  CLOUDY    30  21  69 SE3       30.27F
BUTLER*        CLOUDY    30  19  64 CALM      30.29F
PITTSBURGH INT CLOUDY    32  21  64 N3        30.27F
PITTSBURGH     CLOUDY    31  19  61 CALM      30.26F
INDIANA*       CLOUDY    30  21  69 CALM      30.30F
LATROBE        CLOUDY    32  23  69 CALM      30.29F
WASHINGTON CO* NOT AVBL
$$

PAZ004>006-010>012-017>019-024>028-033>037-041-042-045-046-049>053-211900-
CENTRAL PENNSYLVANIA

CITY           SKY/WX    TMP DP  RH WIND       PRES   REMARKS
BRADFORD       CLOUDY    26  20  77 CALM      30.21F
DUBOIS         CLOUDY    27  21  78 VRB3      30.23F
CLEARFIELD     CLOUDY    29  21  72 NW5       30.26F
JOHNSTOWN      PTSUNNY   27  19  72 CALM      30.20F
ALTOONA        CLOUDY    32  21  64 E5        30.25F
STATE COLLEGE  CLOUDY    30  21  69 CALM      30.26F
WILLIAMSPORT   CLOUDY    34  19  54 VRB5      30.30F
SELINSGROVE    CLOUDY    33  22  63 N5        30.32F
FT INDIANTOWN  CLOUDY    33  22  64 NW7       30.31F
CAPITAL CITY   PTSUNNY   35  21  56 NW6       30.33F
HARRISBURG     PTSUNNY   34  21  59 NE6       30.32F
YORK           PTSUNNY   37  22  54 N9        30.31F
$$

PAZ038>040-043-044-047-048-054-055-060>062-067>071-211900-
EASTERN PENNSYLVANIA

CITY           SKY/WX    TMP DP  RH WIND       PRES   REMARKS
SCRANTON       CLOUDY    31  19  61 VRB5      30.28S
MOUNT POCONO   CLOUDY    26  19  74 NW7       30.21F
ALLENTOWN      CLOUDY    34  21  59 N5        30.30F
QUAKERTOWN*    MOCLDY    36  23  60 NE8       30.30S
READING        CLOUDY    35  22  58 NW10      30.31F
LANCASTER      CLOUDY    33  22  63 W7        30.31F
COATESVILLE    CLOUDY    36  25  64 NW8       30.30S
POTTSTOWN      CLOUDY    35  22  58 N10       30.31F
BLUE BELL      MOSUNNY   37  25  60 CALM      30.29F
DOYLESTOWN     PTSUNNY   35  23  61 NW7       30.29S
WILLOW GROVE   NOT AVBL
NORTH PHILA    SUNNY     40  21  46 N9        30.32F
PHILADELPHIA   MOSUNNY   39  22  50 NW9       30.31F
$$



USA.gov is the U.S. government's official web portal to all federal, state and local government web resources and services.